This demonstration page uses our WeatherBlox Daily Observations layout. Learn more.

Left ArrowRight Arrow

Hourly Observations for June 28, 2022

Temp ( °F °C ) Dew Point ( °F °C ) Humidity (%) Winds ( mph kmh ) Pressure ( in mb ) Visibility ( mi km ) Precip ( " mm )
12:15 am 00:15 Clear 63 17.2 47 8.6 57 57 SW 10 17 30.20 1023 10 16 0.00 0.00
12:35 am 00:35 Clear 62 16.8 48 9.1 61 61 SSW 9 15 30.20 1023 10 16 0.00 0.00
12:55 am 00:55 Clear 61 16.3 49 9.3 63 63 SSW 9 15 30.20 1023 10 16 0.00 0.00
1:15 am 01:15 Clear 61 16.1 49 9.5 65 65 SW 6 9 30.21 1023 10 16 0.00 0.00
1:35 am 01:35 Clear 60 15.4 49 9.7 69 69 Calm 30.21 1023 10 16 0.00 0.00
1:55 am 01:55 Clear 59 15.2 50 9.8 70 70 SW 7 11 30.20 1023 10 16 0.00 0.00
2:15 am 02:15 Clear 59 15 50 10 72 72 SSW 7 11 30.20 1023 10 16 0.00 0.00
2:35 am 02:35 Clear 57 14.1 49 9.7 75 75 SSW 6 9 30.20 1023 10 16 0.00 0.00
2:55 am 02:55 Clear 59 14.9 49 9.2 69 69 SW 6 9 30.20 1023 10 16 0.00 0.00
3:15 am 03:15 Clear 58 14.2 48 9.1 72 72 SSW 6 9 30.20 1023 10 16 0.00 0.00
3:35 am 03:35 Clear 56 13.1 48 9.1 77 77 SSW 9 15 30.20 1023 10 16 0.00 0.00
3:55 am 03:55 Clear 56 13.2 48 9 76 76 S 8 13 30.19 1022 10 16 0.00 0.00
4:15 am 04:15 Clear 56 13.2 48 9 76 76 S 7 11 30.18 1022 10 16 0.00 0.00
4:35 am 04:35 Clear 54 12.3 48 9 80 80 SSW 7 11 30.19 1022 10 16 0.00 0.00
4:55 am 04:55 Clear 57 13.7 49 9.2 74 74 SSW 9 15 30.17 1022 10 16 0.00 0.00
5:15 am 05:15 Clear 57 14 49 9.3 74 74 SSW 7 11 30.16 1021 10 16 0.00 0.00
5:35 am 05:35 Clear 56 13.5 49 9.3 76 76 SW 6 9 30.18 1022 10 16 0.00 0.00
5:55 am 05:55 Clear 58 14.3 49 9.4 73 73 SW 9 15 30.17 1022 10 16 0.00 0.00
6:15 am 06:15 Sunny 59 14.8 49 9.6 71 71 SW 9 15 30.17 1022 10 16 0.00 0.00
6:35 am 06:35 Sunny 59 15 49 9.3 69 69 SW 10 17 30.18 1022 10 16 0.00 0.00
6:55 am 06:55 Sunny 60 15.3 48 9 66 66 SW 9 15 30.17 1022 10 16 0.00 0.00
7:15 am 07:15 Sunny 61 16 47 8.5 61 61 SW 12 19 30.16 1021 10 16 0.00 0.00
7:35 am 07:35 Sunny 63 17.1 46 7.6 54 54 SW 12 19 30.15 1021 10 16 0.00 0.00
7:55 am 07:55 Sunny 65 18.6 43 6.2 44 44 SW 15 24 30.13 1020 10 16 0.00 0.00
8:15 am 08:15 Sunny 66 19.1 44 6.7 45 45 SW 12 19 30.13 1020 10 16 0.00 0.00
8:35 am 08:35 Sunny 67 19.3 46 7.8 47 47 SW 13 20 30.13 1020 10 16 0.00 0.00
8:55 am 08:55 Sunny 68 20.2 48 9 49 49 SW 16 26 30.12 1020 10 16 0.00 0.00
9:15 am 09:15 Sunny 69 20.6 49 9.5 49 49 SW 15 24 30.12 1020 10 16 0.00 0.00
9:35 am 09:35 Sunny 71 21.7 51 10.6 49 49 SW 15 24 30.10 1019 10 16 0.00 0.00
9:55 am 09:55 Sunny 72 22.4 52 11.1 49 49 SW 10 17 30.09 1019 10 16 0.00 0.00
10:15 am 10:15 Sunny 74 23.3 52 11.3 47 47 SW 14 22 30.08 1019 10 16 0.00 0.00
10:35 am 10:35 Sunny 75 24 53 11.5 46 46 SW 14 22 30.08 1019 10 16 0.00 0.00
10:55 am 10:55 Sunny 76 24.7 53 11.8 45 45 SW 9 15 30.07 1018 10 16 0.00 0.00
11:15 am 11:15 Sunny 78 25.7 54 12.2 43 43 SSW 16 26 30.05 1018 10 16 0.00 0.00
11:35 am 11:35 Sunny 80 26.4 55 12.5 42 42 SSW 13 20 30.05 1018 10 16 0.00 0.00
11:55 am 11:55 Sunny 81 27.2 54 12.4 40 40 SSW 14 22 30.04 1017 10 16 0.00 0.00
12:15 pm 12:15 Sunny 83 28.5 55 12.7 38 38 SW 9 15 30.02 1017 10 16 0.00 0.00
12:35 pm 12:35 Sunny 84 28.9 55 12.6 37 37 SSW 9 15 30.02 1016 10 16 0.00 0.00
12:55 pm 12:55 Sunny 86 30 55 12.7 35 35 SSW 13 20 30.00 1016 10 16 0.00 0.00
1:15 pm 13:15 Sunny 87 30.5 54 12.3 33 33 SSW 8 13 29.99 1016 10 16 0.00 0.00
1:35 pm 13:35 Sunny 88 31.3 54 12.4 31 31 S 10 17 29.98 1015 10 16 0.00 0.00
1:55 pm 13:55 Sunny 89 31.7 54 12.4 31 31 S 8 13 29.96 1015 10 16 0.00 0.00
2:15 pm 14:15 Sunny 90 32.2 53 11.9 29 29 S 10 17 29.95 1014 10 16 0.00 0.00
2:35 pm 14:35 Sunny 91 32.5 53 11.8 28 28 S 12 19 29.95 1014 10 16 0.00 0.00
2:55 pm 14:55 Sunny 91 32.6 52 11.3 27 27 S 10 17 29.94 1014 10 16 0.00 0.00
3:15 pm 15:15 Sunny 92 33.1 52 10.9 26 26 S 9 15 29.93 1014 10 16 0.00 0.00
3:35 pm 15:35 Sunny 93 33.7 51 10.5 24 24 SSW 8 13 29.92 1013 10 16 0.00 0.00
3:55 pm 15:55 Sunny 93 34 51 10.3 23 23 S 6 9 29.91 1013 10 16 0.00 0.00
4:15 pm 16:15 Sunny 93 34.1 50 10.2 23 23 S 7 11 29.91 1013 10 16 0.00 0.00
4:35 pm 16:35 Sunny 94 34.2 50 9.8 22 22 SSW 5 7 29.90 1012 10 16 0.00 0.00
4:55 pm 16:55 Sunny 94 34.5 50 9.9 22 22 SW 6 9 29.89 1012 10 16 0.00 0.00
5:15 pm 17:15 Sunny 94 34.6 49 9.3 21 21 S 12 19 29.88 1012 10 16 0.00 0.00
5:35 pm 17:35 Sunny 94 34.5 49 9.3 21 21 S 14 22 29.87 1012 10 16 0.00 0.00
5:55 pm 17:55 Sunny 94 34.7 47 8.6 20 20 S 6 9 29.87 1012 10 16 0.00 0.00
6:15 pm 18:15 Sunny 94 34.3 48 9.1 21 21 SSE 13 20 29.86 1011 10 16 0.00 0.00
6:35 pm 18:35 Sunny 93 34.1 48 8.8 21 21 S 12 19 29.86 1011 10 16 0.00 0.00
6:55 pm 18:55 Sunny 93 33.8 50 9.8 23 23 S 10 17 29.86 1011 10 16 0.00 0.00
7:15 pm 19:15 Sunny 92 33.1 51 10.7 25 25 SSE 10 17 29.86 1011 10 16 0.00 0.00
7:35 pm 19:35 Sunny 90 32.4 52 11.2 27 27 SSE 13 20 29.87 1012 10 16 0.00 0.00
7:55 pm 19:55 Sunny 89 31.4 53 11.5 29 29 SSE 12 19 29.88 1012 10 16 0.00 0.00
8:15 pm 20:15 Sunny 86 30.2 53 11.5 32 32 SSE 9 15 29.90 1012 10 16 0.00 0.00
8:35 pm 20:35 Sunny 85 29.7 53 11.5 32 32 SE 8 13 29.90 1013 10 16 0.00 0.00
8:55 pm 20:55 Sunny 84 29.1 54 12.2 35 35 SSE 10 17 29.91 1013 10 16 0.00 0.00
9:15 pm 21:15 Clear 82 27.9 54 12.1 38 38 SSE 10 17 29.92 1013 10 16 0.00 0.00
9:35 pm 21:35 Clear 81 27.1 54 12 39 39 SSE 10 17 29.93 1014 10 16 0.00 0.00
9:55 pm 21:55 Clear 79 26.3 54 12 41 41 SSE 10 17 29.94 1014 10 16 0.00 0.00
10:15 pm 22:15 Clear 77 25.2 54 12.1 44 44 SSE 9 15 29.97 1015 10 16 0.00 0.00
10:35 pm 22:35 Clear 76 24.2 54 12.1 47 47 SSE 9 15 29.98 1015 10 16 0.00 0.00
10:55 pm 22:55 Clear 75 23.9 54 12.2 48 48 SSE 9 15 29.99 1016 10 16 0.00 0.00
11:15 pm 23:15 Clear 74 23.1 55 12.5 51 51 SSE 9 15 30.00 1016 10 16 0.00 0.00
11:35 pm 23:35 Clear 74 23.3 54 12.3 50 50 SSE 9 15 29.99 1016 10 16 0.00 0.00
11:55 pm 23:55 Clear 73 22.8 54 12.1 51 51 SSE 9 15 30.01 1016 10 16 0.00 0.00

Powered by AerisWeather